CPA172 FACT-FYWH

Flight info

Callsign CPA172
Flight time 0h 32m
Altitude 37000
Route KODES1A KODES UN186 NEVAR
Aircraft B77W/H-SDE1E2E3FGHIJ2J3J4J5M1RWXY/LB1D1

Departure

Time 2026-04-26 16:28
Airport Cape Town International Airport (FACT)

Arrival

Time 2026-04-26 17:01
Airport Hosea Kutako International Airport (FYWH)
Time Latitude Longitude Altitude Speed Heading
2026-04-26 16:04 -33.96900 18.59809 159 ft 0 kts 255°
2026-04-26 16:17 -33.96894 18.59831 159 ft 4 kts 245°
2026-04-26 16:17 -33.96880 18.59858 159 ft 4 kts 225°
2026-04-26 16:17 -33.96859 18.59877 159 ft 4 kts 198°
2026-04-26 16:17 -33.96839 18.59880 159 ft 0 kts 165°
2026-04-26 16:20 -33.96847 18.59882 159 ft 6 kts 165°
2026-04-26 16:21 -33.96898 18.59899 159 ft 8 kts 165°
2026-04-26 16:21 -33.96951 18.59916 159 ft 8 kts 165°
2026-04-26 16:21 -33.97003 18.59932 159 ft 8 kts 165°
2026-04-26 16:21 -33.97056 18.59949 159 ft 8 kts 165°
2026-04-26 16:22 -33.97109 18.59966 159 ft 8 kts 165°
2026-04-26 16:22 -33.97161 18.59983 159 ft 8 kts 165°
2026-04-26 16:22 -33.97222 18.59998 159 ft 13 kts 169°
2026-04-26 16:22 -33.97329 18.60026 159 ft 16 kts 166°
2026-04-26 16:23 -33.97438 18.60062 159 ft 16 kts 164°
2026-04-26 16:23 -33.97543 18.60110 159 ft 16 kts 155°
2026-04-26 16:23 -33.97648 18.60160 159 ft 16 kts 160°
2026-04-26 16:23 -33.97753 18.60206 159 ft 16 kts 160°
2026-04-26 16:24 -33.97859 18.60251 159 ft 16 kts 160°
2026-04-26 16:24 -33.97965 18.60295 159 ft 16 kts 161°
2026-04-26 16:24 -33.98071 18.60342 159 ft 16 kts 160°
2026-04-26 16:24 -33.98177 18.60388 159 ft 16 kts 160°
2026-04-26 16:25 -33.98283 18.60433 159 ft 16 kts 160°
2026-04-26 16:25 -33.98390 18.60479 159 ft 16 kts 160°
2026-04-26 16:25 -33.98493 18.60523 159 ft 15 kts 160°
2026-04-26 16:25 -33.98582 18.60561 159 ft 13 kts 160°
2026-04-26 16:26 -33.98669 18.60599 159 ft 13 kts 160°
2026-04-26 16:26 -33.98728 18.60624 159 ft 13 kts 160°
2026-04-26 16:26 -33.98800 18.60722 159 ft 13 kts 79°
2026-04-26 16:26 -33.98777 18.60829 160 ft 12 kts 75°
2026-04-26 16:27 -33.98724 18.60873 160 ft 10 kts 356°
2026-04-26 16:27 -33.98685 18.60862 159 ft 0 kts 345°
2026-04-26 16:27 -33.98684 18.60862 159 ft 0 kts 345°
2026-04-26 16:27 -33.98614 18.60840 158 ft 39 kts 345°
2026-04-26 16:28 -33.97953 18.60629 159 ft 156 kts 344°
2026-04-26 16:28 -33.96561 18.60193 333 ft 244 kts 345°
2026-04-26 16:28 -33.94822 18.59879 1858 ft 258 kts 354°
2026-04-26 16:28 -33.93007 18.60138 3877 ft 279 kts
2026-04-26 16:29 -33.90918 18.60363 4776 ft 326 kts 360°
2026-04-26 16:29 -33.88539 18.60669 6203 ft 352 kts
2026-04-26 16:29 -33.86154 18.61213 8602 ft 345 kts
2026-04-26 16:29 -33.83917 18.61777 10663 ft 313 kts
2026-04-26 16:30 -33.81849 18.62378 12149 ft 301 kts
2026-04-26 16:30 -33.79850 18.62946 13324 ft 291 kts
2026-04-26 16:30 -33.77874 18.63381 14373 ft 286 kts 358°
2026-04-26 16:30 -33.75908 18.63801 15369 ft 287 kts 358°
2026-04-26 16:31 -33.73941 18.64251 16378 ft 287 kts 358°
2026-04-26 16:31 -33.71983 18.64727 17431 ft 287 kts 358°
2026-04-26 16:31 -33.70056 18.65232 18431 ft 288 kts 358°
2026-04-26 16:31 -33.68030 18.65726 18456 ft 308 kts 354°
2026-04-26 16:32 -33.65909 18.66055 18260 ft 306 kts 353°
2026-04-26 16:32 -33.64508 18.66260 18089 ft 304 kts 354°
2026-04-26 16:32 -33.61748 18.66696 17996 ft 290 kts 354°
2026-04-26 16:32 -33.59798 18.67036 18271 ft 284 kts 353°
2026-04-26 16:33 -33.57790 18.67372 18574 ft 304 kts 354°
2026-04-26 16:33 -33.55593 18.67735 18762 ft 332 kts 355°
2026-04-26 16:33 -33.53211 18.68147 18888 ft 359 kts 356°
2026-04-26 16:33 -33.51115 18.68530 19152 ft 376 kts 357°
2026-04-26 16:34 -33.48529 18.69026 19763 ft 387 kts 357°
2026-04-26 16:34 -33.45817 18.69559 20531 ft 392 kts 356°
2026-04-26 16:34 -33.43139 18.70087 21377 ft 395 kts 356°
2026-04-26 16:34 -33.40406 18.70622 22211 ft 399 kts 355°
2026-04-26 16:35 -33.16337 18.75178 27582 ft 421 kts 352°
2026-04-26 16:35 -33.13408 18.75292 27854 ft 418 kts 344°
2026-04-26 16:35 -33.10526 18.74965 28210 ft 414 kts 338°
2026-04-26 16:35 -33.07720 18.74351 28675 ft 417 kts 338°
2026-04-26 16:36 -33.04839 18.73769 29193 ft 422 kts 338°
2026-04-26 16:36 -33.01922 18.73221 29620 ft 426 kts 339°
2026-04-26 16:36 -32.98973 18.72682 30019 ft 431 kts 339°
2026-04-26 16:36 -32.95993 18.72140 30396 ft 434 kts 339°
2026-04-26 16:37 -32.94005 18.71779 30656 ft 436 kts 338°
2026-04-26 16:37 -32.46808 18.63027 35241 ft 436 kts 334°
2026-04-26 16:37 -32.13694 18.57083 35941 ft 445 kts 335°
2026-04-26 16:37 -31.65265 18.48264 36076 ft 444 kts 335°
2026-04-26 16:38 -31.17162 18.39677 35982 ft 429 kts 335°
2026-04-26 16:38 -30.70423 18.31367 36004 ft 419 kts 335°
2026-04-26 16:38 -30.23944 18.23184 36105 ft 422 kts 336°
2026-04-26 16:38 -29.77304 18.15067 36152 ft 425 kts 337°
2026-04-26 16:39 -28.81729 17.98595 36250 ft 432 kts 338°
2026-04-26 16:39 -28.33166 17.90401 36198 ft 443 kts 339°
2026-04-26 16:39 -27.82775 17.85941 36136 ft 447 kts 343°
2026-04-26 16:40 -27.32449 17.81932 35950 ft 453 kts 345°
2026-04-26 16:40 -26.82096 17.78159 35926 ft 451 kts 345°
2026-04-26 16:40 -26.31990 17.73954 36048 ft 450 kts 345°
2026-04-26 16:40 -25.81947 17.69413 36000 ft 453 kts 346°
2026-04-26 16:41 -24.81368 17.58483 35934 ft 454 kts 346°
2026-04-26 16:41 -23.81412 17.45687 36008 ft 456 kts 346°
2026-04-26 16:42 -23.40066 17.39903 35989 ft 458 kts 346°
2026-04-26 16:42 -23.33735 17.39003 35985 ft 459 kts 347°
2026-04-26 16:43 -23.27441 17.38107 35981 ft 459 kts 347°
2026-04-26 16:43 -23.21117 17.37210 35436 ft 453 kts 347°
2026-04-26 16:44 -23.17999 17.36771 34915 ft 450 kts 347°
2026-04-26 16:44 -23.14897 17.36339 34424 ft 447 kts 347°
2026-04-26 16:44 -23.11905 17.35725 33853 ft 433 kts 335°
2026-04-26 16:44 -23.09309 17.34193 33189 ft 420 kts 316°
2026-04-26 16:45 -23.07366 17.31902 32498 ft 405 kts 302°
2026-04-26 16:45 -23.06022 17.29303 31548 ft 396 kts 292°
2026-04-26 16:45 -23.04985 17.26539 30487 ft 393 kts 287°
2026-04-26 16:45 -23.04324 17.23684 29377 ft 387 kts 275°
2026-04-26 16:46 -23.04440 17.20786 28306 ft 381 kts 265°
2026-04-26 16:46 -23.04236 17.17957 27257 ft 378 kts 286°
2026-04-26 16:46 -23.02956 17.15472 26228 ft 383 kts 308°
2026-04-26 16:46 -23.00888 17.13611 25250 ft 389 kts 322°
2026-04-26 16:47 -22.98515 17.12172 24317 ft 391 kts 329°
2026-04-26 16:47 -22.95970 17.11102 23375 ft 395 kts 339°
2026-04-26 16:47 -22.93250 17.10619 22435 ft 399 kts 355°
2026-04-26 16:47 -22.90577 17.10983 22104 ft 387 kts 12°
2026-04-26 16:48 -22.88091 17.12063 21761 ft 386 kts 24°
2026-04-26 16:48 -22.85857 17.13674 21387 ft 388 kts 39°
2026-04-26 16:48 -22.84051 17.15836 21034 ft 385 kts 48°
2026-04-26 16:48 -22.82368 17.18093 20661 ft 385 kts 49°
2026-04-26 16:49 -22.80678 17.20363 20300 ft 390 kts 49°
2026-04-26 16:49 -22.78949 17.22663 19897 ft 395 kts 49°
2026-04-26 16:49 -22.77238 17.24916 19499 ft 395 kts 48°
2026-04-26 16:49 -22.75448 17.27255 19093 ft 393 kts 48°
2026-04-26 16:50 -22.73706 17.29521 18691 ft 390 kts 48°
2026-04-26 16:50 -22.71971 17.31773 18254 ft 388 kts 48°
2026-04-26 16:50 -22.70260 17.33991 17805 ft 385 kts 48°
2026-04-26 16:50 -22.68551 17.36205 17399 ft 381 kts 48°
2026-04-26 16:51 -22.66929 17.38459 16983 ft 377 kts 55°
2026-04-26 16:51 -22.65621 17.40910 16604 ft 374 kts 61°
2026-04-26 16:51 -22.64452 17.43410 16204 ft 371 kts 62°
2026-04-26 16:51 -22.63299 17.45893 15823 ft 367 kts 62°
2026-04-26 16:52 -22.62129 17.48337 15480 ft 363 kts 61°
2026-04-26 16:52 -22.61350 17.49922 15376 ft 356 kts 60°
2026-04-26 16:52 -22.59807 17.53016 15166 ft 343 kts 60°
2026-04-26 16:52 -22.58688 17.55249 14972 ft 334 kts 60°
2026-04-26 16:53 -22.57582 17.57456 14592 ft 333 kts 60°
2026-04-26 16:53 -22.56492 17.59628 14238 ft 332 kts 60°
2026-04-26 16:53 -22.55392 17.61824 13854 ft 331 kts 61°
2026-04-26 16:53 -22.54295 17.64012 13421 ft 331 kts 60°
2026-04-26 16:54 -22.53199 17.66199 13027 ft 329 kts 60°
2026-04-26 16:54 -22.52110 17.68372 12630 ft 327 kts 60°
2026-04-26 16:54 -22.51025 17.70532 12257 ft 325 kts 60°
2026-04-26 16:54 -22.49936 17.72662 11970 ft 319 kts 56°
2026-04-26 16:55 -22.48451 17.74344 11595 ft 312 kts 30°
2026-04-26 16:55 -22.46469 17.75209 11235 ft 305 kts
2026-04-26 16:55 -22.44381 17.75347 10913 ft 299 kts 354°
2026-04-26 16:55 -22.42392 17.74874 10593 ft 289 kts 332°
2026-04-26 16:56 -22.39895 17.71856 10480 ft 261 kts 293°
2026-04-26 16:56 -22.39420 17.70035 10451 ft 246 kts 280°
2026-04-26 16:56 -22.39179 17.68253 10379 ft 233 kts 277°
2026-04-26 16:57 -22.39256 17.66604 10275 ft 215 kts 254°
2026-04-26 16:57 -22.39763 17.65129 10094 ft 203 kts 249°
2026-04-26 16:57 -22.40960 17.62379 9189 ft 210 kts 245°
2026-04-26 16:58 -22.41635 17.60910 8496 ft 225 kts 245°
2026-04-26 16:58 -22.42112 17.59873 7966 ft 231 kts 245°
2026-04-26 16:58 -22.43731 17.56357 7050 ft 206 kts 245°
2026-04-26 16:59 -22.44333 17.55048 6808 ft 182 kts 246°
2026-04-26 16:59 -22.45385 17.52752 6383 ft 166 kts 247°
2026-04-26 17:00 -22.46401 17.50537 5943 ft 167 kts 244°
2026-04-26 17:00 -22.47409 17.48358 5565 ft 154 kts 246°
2026-04-26 17:00 -22.47831 17.47432 5579 ft 117 kts 244°
2026-04-26 17:01 -22.48126 17.46798 5600 ft 72 kts 244°
2026-04-26 17:01 -22.48281 17.46461 5604 ft 28 kts 243°
2026-04-26 17:01 -22.48310 17.46398 5602 ft 6 kts 244°
2026-04-26 17:01 -22.48356 17.46309 5608 ft 15 kts 235°
2026-04-26 17:02 -22.48443 17.46311 5610 ft 15 kts 137°
2026-04-26 17:02 -22.48507 17.46373 5611 ft 9 kts 155°
2026-04-26 17:02 -22.48554 17.46393 5611 ft 6 kts 169°
2026-04-26 17:02 -22.48588 17.46370 5614 ft 6 kts 246°
2026-04-26 17:03 -22.48599 17.46335 5607 ft 4 kts 263°
2026-04-26 17:03 -22.48590 17.46309 5616 ft 4 kts 315°
2026-04-26 17:03 -22.48574 17.46301 5608 ft 2 kts 333°
2026-04-26 17:03 -22.48564 17.46295 5608 ft 1 kts 334°
2026-04-26 17:04 -22.48561 17.46294 5614 ft 0 kts 334°
2026-04-26 17:07 -22.48602 17.46304 5612 ft 6 kts 27°
2026-04-26 17:07 -22.48581 17.46303 5616 ft 0 kts 340°
2026-04-26 17:10 -22.48576 17.46311 5614 ft 0 kts 317°